Regional Weather Roundup
Issued by NWS Northern Indiana

Home | Current Version | Previous Version | Text Only | Print | Product List | Glossary Off
Versions: 1 2 3 4 5 6 7 8 9 10 11 12 13 14 15 16 17 18 19 20 21 22 23 24 25 26 27 28 29 30 31 32 33 34 35 36 37 38 39 40 41 42 43 44 45 46 47 48 49 50

000
ASUS43 KIWX 312310
RWRIWX

KIWX WEATHER ROUNDUP
NATIONAL WEATHER SERVICE NORTHERN INDIANA
700 PM EDT THU JUL 31 2014

NOTE: "FAIR" INDICATES FEW OR NO CLOUDS BELOW 12,000 FEET WITH NO
SIGNIFICANT WEATHER AND/OR OBSTRUCTIONS TO VISIBILITY.

* THESE STATIONS ARE NOT UNDER NWS QUALITY CONTROL. THEY ALSO MAY NOT
  REPORT WEATHER SUCH AS PRECIPITATION OR FOG.

INZ001>027-010000-
NORTHERN INDIANA

CITY           SKY/WX    TMP DP  RH WIND       PRES   REMARKS
GARY*          PTSUNNY   81  59  47 W16       30.03R
VALPARAISO     PTSUNNY   79  60  52 SW10      30.04S
MICHIGAN CITY* MOSUNNY   79  55  44 W6        30.03S
LAPORTE*       PTSUNNY   67  63  86 SE5       30.04S
KNOX*          CLOUDY    71  59  64 NE6       30.04S
SOUTH BEND     MOSUNNY   75  58  55 SW14      30.05R
ELKHART*       MOSUNNY   79  57  47 SW9       30.04S
GOSHEN         CLOUDY    77  59  53 SW8       30.04R
MONTICELLO*    SUNNY     78  63  59 SW5       30.05S
LOGANSPORT*    SUNNY     77  59  53 W7        30.06F
ROCHESTER*     MOSUNNY   81  59  47 SW9       30.06S
WARSAW*        PTSUNNY   75  59  57 W8        30.05R
ANGOLA*        PTSUNNY   79  73  83 SW3       30.04F
FORT WAYNE     MOSUNNY   79  60  52 SW9       30.05F
HUNTINGTON*    SUNNY     78  59  51 W7        30.05S
PERU/GRISSOM   SUNNY     78  63  59 W8        30.06S
MARION*        SUNNY     77  57  50 W7        30.07F

$$
INZ028>050-010000-
CENTRAL INDIANA

CITY           SKY/WX    TMP DP  RH WIND       PRES   REMARKS
LAFAYETTE      SUNNY     78  61  55 SW5       30.05F
KOKOMO*        SUNNY     79  59  50 W8        30.06F
MUNCIE*        SUNNY     78  58  49 W7        30.07F
INDIANAPOLIS   MOSUNNY   78  57  48 W7        30.07S

$$
MIZ043>046-050>051-056>058-064>065-071>073-077>080-010000-
SOUTHWEST LOWER MICHIGAN

CITY           SKY/WX    TMP DP  RH WIND       PRES   REMARKS
BATTLE CREEK   SUNNY     77  59  53 W8        30.04S
BENTON HARBOR  PTSUNNY   77  55  46 SW7       30.02S
COLDWATER*     SUNNY     78  56  47 W9        30.04S
HILLSDALE*     SUNNY     78  58  49 W8        30.04F
HOLLAND        SUNNY     78  60  53 SW9       30.02F
GRAND RAPIDS   MOSUNNY   78  59  51 W13       30.02S
KALAMAZOO      SUNNY     78  57  48 W10       30.03S
STURGIS*       SUNNY     79  57  47 W6        30.04S
THREE RIVERS*  FAIR      80  59  48 NW7       30.04S

$$
OHZ001>008-015>018-024>025-010000-
NORTHWEST OHIO

CITY           SKY/WX    TMP DP  RH WIND       PRES   REMARKS
WAUSEON*       FAIR      79  59  50 W10G17    30.03S
DEFIANCE       PTSUNNY   79  59  50 CALM      30.04S
FINDLAY        SUNNY     80  57  45 SW12      30.04S
TOLEDO EXPRESS PTSUNNY   78  57  48 SW7       30.02S
TOLEDO METCALF MOSUNNY   80  57  45 SW13      30.03S
LIMA           SUNNY     79  58  48 SW8       30.06F

$$
&&



USA.gov is the U.S. government's official web portal to all federal, state and local government web resources and services.